Temperature
18 18 17 17 16 16 15 15 15 14 14 14 14 14 14 13 13 13 13 13 13 13 13 13 13 13 14 14 14 14 15 15 15 15 16 16 17 17 17 17 17 17 17
18 17 17 17 16 16 15 15 14 14 14 14 13 13 13 13 13 13 13 13 13 13 13 13 13 13 13 14 14 14 14 15 15 15 15 16 16 17 17 17 17 17 17
18 17 17 17 16 16 15 15 14 14 14 13 13 13 13 13 13 13 13 13 13 13 13 13 13 13 13 13 14 14 14 14 14 15 15 15 16 16 17 17 17 17 17
18 18 17 17 16 15 15 14 14 14 14 13 13 13 13 13 13 13 13 13 13 13 13 13 13 13 13 13 13 13 14 14 14 14 15 15 15 16 16 16 16 17 17
18 18 17 17 16 15 15 14 14 14 13 13 13 13 13 13 13 13 13 13 13 13 12 12 13 13 13 13 13 13 13 14 14 14 14 15 15 15 15 15 16 16 16
18 18 17 17 16 15 15 14 14 14 13 13 13 13 13 13 13 13 13 13 13 12 12 12 12 12 13 13 13 13 13 13 14 14 14 14 14 15 15 15 15 16 16
18 18 17 17 16 15 15 14 14 14 13 13 13 13 13 13 12 12 12 12 12 12 12 12 12 12 12 13 13 13 13 13 13 14 14 14 14 14 14 15 15 15 15
18 18 17 17 16 16 15 15 14 14 13 13 13 13 13 12 12 12 12 12 12 12 12 12 12 12 12 13 13 13 13 13 13 13 13 14 14 14 14 14 14 14 15
18 18 17 17 16 16 15 15 14 14 14 13 13 13 13 13 12 12 12 12 12 12 12 12 12 12 12 12 12 13 13 13 13 13 13 13 14 14 14 14 14 14 14
18 18 17 17 16 16 15 15 14 14 14 13 13 13 13 13 13 12 12 12 12 12 12 12 12 12 12 12 12 12 13 13 13 13 13 13 13 13 13 14 14 14 14
19 18 18 17 17 16 15 15 15 14 14 14 13 13 13 13 13 13 12 12 12 12 12 12 12 12 12 12 12 12 12 13 13 13 13 13 13 13 13 13 14 14 14
19 18 18 17 17 16 16 15 15 14 14 14 14 13 13 13 13 13 13 12 12 12 12 12 12 12 12 12 12 12 12 12 13 13 13 13 13 13 13 13 13 13 14
19 18 18 17 17 16 16 15 15 15 14 14 14 13 13 13 13 13 13 13 12 12 12 12 12 12 12 12 12 12 12 12 12 13 13 13 13 13 13 13 13 13 13
19 19 18 18 17 17 16 16 15 15 15 14 14 14 13 13 13 13 13 13 13 13 12 12 12 12 12 12 12 12 12 12 12 12 13 13 13 13 13 13 13 13 13
19 19 18 18 17 17 16 16 16 15 15 14 14 14 13 13 13 13 13 13 13 13 12 12 12 12 12 12 12 12 12 12 12 13 12 12 12 13 13 13 13 13 13
19 19 19 18 18 17 17 16 16 15 15 15 14 14 14 13 13 13 13 13 13 13 13 12 12 12 12 12 12 12 12 12 12 12 12 12 12 12 12 12 12 13 13
20 19 19 18 18 17 17 16 16 16 15 15 15 14 14 14 14 13 13 13 13 13 13 13 12 12 12 12 12 12 12 12 12 12 12 12 12 12 12 12 12 12 12
20 19 19 19 18 17 17 17 16 16 15 15 15 14 14 14 14 14 13 13 13 13 13 13 13 12 12 12 12 12 12 12 12 12 12 12 12 12 12 12 12 12 12
20 20 19 19 18 18 17 17 16 16 16 15 15 15 14 14 14 14 14 13 13 13 13 13 13 13 12 12 12 12 12 12 12 12 12 12 12 12 12 12 12 12 12
20 19 19 18 18 17 17 17 16 16 16 15 15 15 15 14 14 14 14 14 14 13 13 13 13 13 13 12 12 12 12 12 12 12 12 12 12 12 12 12 12 12 12
20 19 19 18 18 17 17 17 16 16 16 15 15 15 15 15 14 14 14 14 14 13 13 13 13 13 13 12 12 12 12 12 12 12 12 12 12 12 12 12 12 12 12
19 19 18 18 17 17 17 17 16 16 16 16 15 15 15 15 14 14 14 14 14 14 14 13 13 13 13 13 12 12 12 12 12 12 12 12 12 12 12 12 12 12 12
19 18 18 18 17 17 17 17 16 16 16 16 15 15 15 15 15 14 14 14 14 14 14 14 13 13 13 13 13 12 12 12 12 12 12 12 12 12 12 12 12 12 12
19 18 18 17 17 17 16 16 16 16 16 15 15 15 15 15 15 14 14 14 14 14 14 14 14 14 13 13 13 13 12 12 12 12 12 12 12 12 12 12 12 11 11
18 18 17 17 17 16 16 16 16 16 15 15 15 15 15 15 14 14 14 14 14 14 14 14 13 14 14 13 13 13 13 12 12 12 12 12 12 12 12 12 11 11 11
18 18 17 17 16 16 16 16 15 15 15 15 15 15 14 14 14 14 14 14 14 14 14 13 13 13 13 13 13 13 13 13 12 12 12 12 12 12 12 11 11 11 11
Wind_Speed
6 6 6 6 5 4 4 3 2 2 2 2 2 3 4 4 4 4 4 4 4 3 2 2 3 2 1 2 2 1 2 2 1 0 1 2 2 3 3 4 4 5 6
6 6 5 5 5 4 3 3 2 2 2 1 2 2 3 3 3 4 4 5 4 4 2 2 2 2 2 2 1 0 0 1 1 1 1 1 2 1 2 3 4 5 4
10 8 6 5 5 4 3 3 2 1 2 2 2 3 3 3 4 4 4 4 5 4 3 2 2 2 1 2 2 1 2 1 1 1 2 2 3 1 1 2 3 3 4
9 8 7 6 5 4 3 3 1 1 2 2 3 2 2 2 3 4 4 6 5 4 3 2 2 2 1 2 2 1 1 2 1 1 1 2 2 2 1 1 1 3 3
10 9 8 7 6 5 4 2 1 1 2 3 3 2 2 2 3 4 5 5 5 4 4 2 2 2 2 2 2 1 1 2 2 2 1 0 0 1 2 1 1 1 1
9 8 7 6 4 4 3 2 1 1 2 3 3 2 2 3 4 5 5 5 4 4 5 3 3 2 2 2 2 2 2 2 2 2 2 2 1 2 2 2 1 2 2
9 8 8 7 5 5 3 2 1 1 2 2 2 2 2 2 3 4 4 4 3 3 5 4 3 3 3 2 2 1 1 2 2 2 2 2 2 2 2 2 2 1 1
8 9 9 8 6 6 5 3 2 2 2 2 3 2 2 2 2 3 3 3 3 3 4 4 4 4 3 3 2 1 1 1 2 2 2 2 2 3 3 3 3 1 1
9 9 8 8 7 6 6 5 3 2 2 2 2 2 3 3 3 4 3 3 3 3 4 4 4 4 3 3 2 1 1 0 1 2 2 2 2 2 2 3 3 4 2
8 8 8 7 7 6 5 4 4 3 2 1 1 1 2 3 3 3 4 4 4 4 4 4 4 4 3 3 2 1 1 1 1 1 1 1 1 1 2 2 2 3 4
9 8 7 7 6 5 5 4 3 2 2 1 1 1 2 2 3 3 4 4 4 4 4 4 4 4 3 3 2 1 1 1 1 1 0 1 1 1 1 1 2 2 3
8 8 8 6 5 5 5 5 4 3 3 2 1 1 1 2 3 4 4 4 4 4 4 4 4 4 3 2 2 1 2 1 1 1 1 1 0 1 1 1 2 2 3
8 7 6 6 6 6 5 5 4 4 3 2 1 0 2 2 3 4 4 4 4 4 5 4 4 4 3 2 2 1 1 1 1 1 1 1 1 1 1 1 1 2 2
8 8 7 7 6 6 6 5 5 4 4 3 2 1 2 2 2 3 4 4 3 4 4 4 4 4 3 2 2 2 2 1 1 1 1 1 2 2 2 1 2 2 2
8 8 8 7 6 6 5 5 5 4 4 3 2 2 2 2 2 3 3 3 3 4 4 4 5 5 3 3 2 1 1 2 2 2 2 2 2 3 3 2 2 2 2
9 8 8 7 7 7 6 5 5 5 4 4 3 2 1 1 2 2 3 3 4 4 4 4 4 5 4 5 4 1 1 1 1 2 2 2 2 3 3 3 3 4 4
8 8 8 8 8 7 7 6 6 4 4 4 3 3 2 1 2 2 2 3 3 3 4 4 4 4 6 7 6 4 1 1 1 1 1 2 2 2 1 3 3 4 5
7 7 7 7 7 6 6 6 5 5 4 3 3 3 3 2 2 2 2 3 2 2 3 3 4 4 5 7 6 5 2 2 2 1 1 1 2 2 2 1 1 2 3
7 7 7 6 6 6 6 6 5 4 4 4 4 4 4 3 3 3 3 3 2 3 3 3 3 3 5 6 5 3 2 2 3 3 2 1 2 4 2 0 1 2 3
6 5 5 5 6 5 6 6 5 4 5 5 6 5 4 4 4 4 4 3 2 3 3 3 3 3 4 6 4 2 1 1 2 3 3 4 3 3 2 1 1 2 3
6 6 7 6 5 5 6 6 5 5 6 5 5 4 4 4 5 4 3 3 3 3 3 4 4 4 5 6 5 2 1 1 1 2 3 3 5 5 4 2 2 4 4
6 6 6 5 3 5 6 5 4 5 4 4 4 4 5 4 3 4 4 3 2 3 4 4 5 4 5 5 5 4 3 2 1 2 3 4 6 6 6 4 4 4 3
6 5 6 5 2 3 5 4 3 3 3 2 3 4 4 4 4 4 4 3 2 2 3 3 4 5 4 4 6 6 5 4 2 3 4 5 6 7 5 5 6 4 1
5 5 6 5 3 2 2 2 2 2 2 2 3 3 3 4 4 3 4 3 3 3 4 4 5 5 4 4 4 3 3 3 3 3 5 6 6 5 5 5 4 2 2
5 6 6 5 4 2 1 0 1 2 2 2 2 3 3 4 4 4 4 5 5 5 5 5 5 4 5 7 7 5 4 4 3 2 2 2 3 3 3 3 3 3 2
6 6 6 5 3 2 1 1 0 2 2 1 2 2 3 3 3 4 5 6 7 9 10 9 7 6 9 10 8 9 8 7 4 2 2 3 3 4 4 4 4 3 3
Wind_Direction
173 155 148 135 117 100 90 79 52 8 12 358 346 333 321 318 325 319 314 315 314 313 296 296 301 303 284 278 277 249 248 252 194 159 313 307 255 207 194 182 181 197 203
153 159 150 132 123 119 102 83 53 14 353 313 285 270 283 294 299 313 325 326 321 316 304 293 289 285 277 297 293 237 225 250 170 155 134 320 327 298 206 178 189 198 193
164 166 154 145 132 127 119 103 81 28 341 329 331 343 349 337 338 335 331 323 325 322 310 304 301 293 254 264 262 223 177 228 261 183 166 173 224 276 297 199 193 187 191
159 161 158 152 149 154 139 127 118 358 334 349 6 358 350 326 300 303 310 320 328 327 322 323 324 307 282 263 264 222 187 176 208 279 219 197 185 177 295 306 213 191 192
160 163 162 158 156 155 147 143 118 344 337 356 13 16 354 304 306 322 333 335 335 338 339 331 336 328 305 274 271 274 210 184 187 195 210 215 166 164 175 249 278 254 222
162 161 159 151 150 154 147 141 122 318 327 348 5 21 352 337 344 342 340 335 330 330 332 329 333 322 312 291 272 258 227 209 196 196 193 189 187 193 169 195 233 244 246
162 161 162 163 165 168 169 162 158 288 312 332 339 336 331 330 330 321 323 326 327 319 314 324 323 313 307 302 285 257 242 215 200 211 216 214 211 194 175 171 191 226 259
175 175 178 178 180 183 182 181 190 250 293 311 316 320 323 323 315 316 313 315 303 297 308 320 323 321 318 318 313 278 254 214 206 224 221 216 222 200 189 178 167 176 258
186 183 183 183 186 190 196 196 197 232 277 291 310 329 331 333 325 324 329 321 309 315 333 336 335 336 337 335 340 323 284 243 208 227 227 224 223 212 203 186 173 168 196
187 186 186 189 193 195 198 198 196 211 237 263 306 338 330 329 329 337 335 327 324 333 342 341 344 345 343 347 1 345 328 350 292 231 234 237 231 219 207 193 192 182 181
187 187 191 193 191 186 188 199 204 201 214 241 295 348 331 333 344 342 328 324 330 336 341 337 340 345 345 349 13 5 17 24 345 333 277 265 236 211 221 195 181 187 175
184 185 186 186 185 184 189 196 197 196 214 217 206 303 320 340 347 340 333 332 334 338 342 346 348 347 349 351 4 356 13 18 340 331 9 302 285 241 223 183 191 198 190
179 180 182 188 193 192 193 198 198 201 209 195 171 313 329 331 331 330 337 345 346 346 352 1 353 344 339 341 339 344 343 345 307 280 253 264 238 242 242 217 215 217 212
181 182 192 202 203 198 197 196 201 199 192 176 168 237 286 292 305 323 343 350 351 354 351 353 346 341 345 347 349 7 2 351 334 303 261 255 233 229 217 221 222 208 198
188 190 195 202 203 201 206 201 201 201 186 171 187 239 267 290 318 335 343 348 349 352 348 350 349 348 351 356 356 349 345 339 332 325 305 278 268 245 219 217 208 193 197
195 195 194 193 194 194 199 197 199 201 178 173 201 226 260 308 319 320 333 345 342 343 351 350 348 351 351 355 360 358 348 329 315 312 315 306 294 276 267 255 229 211 207
193 191 191 193 194 194 189 190 196 189 173 183 206 217 225 258 290 314 337 330 326 334 339 339 344 339 332 347 358 3 21 350 317 291 305 317 323 317 293 274 257 249 240
189 189 189 188 190 187 183 179 168 167 172 186 210 221 223 248 277 308 308 302 305 313 315 321 327 326 327 341 348 356 19 15 360 341 303 298 317 315 300 280 284 271 259
183 185 184 178 175 176 175 158 160 171 179 201 219 224 219 231 256 273 278 274 287 297 298 298 310 315 315 329 340 360 26 16 355 348 341 319 309 324 340 276 266 301 300
163 163 157 147 157 176 159 150 166 178 203 219 224 224 218 222 238 252 260 263 259 272 288 297 294 293 299 316 322 342 55 7 335 338 340 332 325 325 347 318 252 271 284
158 149 142 148 169 164 147 152 171 205 223 224 223 225 227 230 236 249 257 264 274 293 299 298 295 291 287 304 307 290 148 224 293 314 321 318 328 330 325 312 263 267 278
149 145 142 153 164 154 146 155 197 226 220 213 219 234 240 244 240 237 259 267 268 286 294 298 301 294 288 287 290 271 231 204 215 272 288 300 315 321 321 312 293 296 306
151 145 144 141 135 146 145 162 226 220 193 197 233 254 263 259 251 237 250 265 263 264 278 280 284 289 288 285 281 273 260 238 226 260 278 297 312 321 320 309 306 311 302
150 140 133 134 137 139 137 172 217 194 175 206 251 268 275 282 277 259 246 245 253 257 266 268 271 277 283 277 274 268 267 267 269 281 297 309 317 313 299 304 308 294 261
145 137 139 144 155 149 138 167 164 142 167 229 269 282 277 276 280 276 256 246 243 234 235 247 247 254 274 269 241 222 231 230 236 256 310 324 326 323 317 312 301 288 277
140 136 139 141 139 117 80 3 3 144 151 245 292 292 291 288 286 289 298 278 264 272 259 253 251 252 253 270 259 239 236 230 217 191 258 275 278 280 285 291 296 288 265
Height
1526 1527 1527 1526 1525 1524 1522 1521 1519 1517 1515 1513 1510 1508 1506 1503 1501 1499 1497 1496 1494 1493 1492 1491 1490 1490 1490 1490 1491 1492 1493 1494 1495 1497 1498 1500 1502 1503 1505 1507 1510 1512 1514
1525 1526 1526 1525 1524 1523 1521 1520 1518 1516 1514 1512 1509 1507 1505 1503 1500 1498 1496 1494 1493 1491 1490 1489 1488 1488 1488 1488 1489 1490 1491 1492 1493 1494 1496 1497 1500 1500 1502 1504 1506 1509 1511
1523 1524 1524 1523 1523 1522 1520 1519 1517 1515 1513 1511 1509 1507 1504 1502 1500 1497 1495 1493 1491 1490 1488 1487 1487 1486 1486 1486 1487 1487 1488 1489 1491 1492 1494 1495 1496 1497 1499 1501 1503 1505 1507
1522 1522 1522 1522 1522 1521 1519 1518 1516 1515 1513 1510 1508 1506 1503 1501 1499 1496 1494 1492 1491 1489 1487 1486 1485 1484 1484 1484 1485 1486 1486 1487 1488 1490 1492 1494 1494 1496 1496 1498 1500 1502 1504
1520 1521 1521 1521 1520 1520 1519 1517 1516 1514 1512 1510 1508 1505 1503 1501 1498 1496 1494 1492 1490 1488 1486 1485 1483 1482 1482 1482 1483 1483 1484 1485 1486 1488 1489 1490 1492 1493 1494 1495 1497 1499 1501
1519 1520 1520 1520 1520 1519 1518 1516 1515 1513 1511 1509 1507 1505 1503 1500 1498 1496 1493 1491 1489 1487 1485 1483 1482 1481 1480 1480 1480 1481 1482 1483 1484 1485 1486 1488 1489 1490 1492 1493 1494 1496 1497
1518 1518 1519 1519 1518 1518 1517 1516 1514 1513 1511 1509 1507 1505 1502 1500 1498 1495 1493 1490 1488 1486 1484 1482 1481 1480 1479 1479 1479 1479 1480 1481 1482 1483 1484 1485 1487 1489 1490 1492 1493 1494 1495
1516 1517 1517 1517 1517 1517 1516 1515 1514 1512 1511 1509 1507 1505 1502 1500 1498 1495 1493 1490 1488 1486 1484 1482 1480 1479 1478 1477 1477 1477 1478 1479 1480 1481 1482 1483 1485 1486 1488 1490 1491 1491 1492
1514 1515 1516 1516 1516 1516 1515 1514 1513 1512 1510 1508 1506 1504 1502 1500 1497 1495 1493 1490 1488 1485 1483 1481 1479 1478 1477 1476 1475 1476 1476 1477 1478 1478 1480 1481 1482 1484 1485 1487 1488 1490 1490
1513 1514 1514 1515 1515 1515 1514 1513 1512 1511 1510 1508 1506 1504 1502 1500 1497 1495 1493 1490 1488 1485 1483 1481 1479 1478 1476 1475 1474 1474 1475 1475 1476 1477 1478 1479 1480 1481 1483 1484 1485 1487 1488
1511 1512 1513 1513 1513 1513 1513 1513 1512 1510 1509 1508 1506 1504 1502 1500 1498 1495 1493 1490 1488 1485 1483 1481 1479 1477 1475 1474 1474 1474 1474 1474 1474 1475 1476 1477 1478 1479 1480 1481 1482 1484 1485
1509 1510 1511 1512 1512 1512 1512 1512 1511 1510 1508 1507 1506 1504 1502 1500 1498 1495 1493 1490 1488 1485 1483 1481 1479 1477 1475 1474 1473 1473 1473 1473 1473 1474 1474 1475 1476 1477 1478 1479 1480 1481 1482
1507 1508 1509 1510 1510 1511 1511 1510 1510 1509 1508 1507 1505 1503 1502 1500 1498 1495 1493 1490 1488 1485 1483 1481 1478 1476 1474 1473 1472 1472 1472 1472 1472 1472 1473 1474 1475 1475 1476 1477 1478 1479 1480
1505 1506 1507 1508 1509 1509 1509 1509 1509 1508 1507 1506 1505 1503 1501 1499 1497 1495 1493 1491 1488 1485 1483 1481 1478 1476 1474 1473 1472 1472 1471 1471 1471 1471 1471 1472 1473 1473 1474 1475 1475 1476 1477
1503 1504 1505 1506 1507 1507 1508 1508 1507 1507 1506 1505 1504 1503 1501 1499 1497 1495 1493 1491 1488 1486 1483 1481 1478 1476 1474 1473 1472 1471 1471 1470 1470 1470 1470 1470 1471 1471 1472 1472 1473 1473 1474
1500 1502 1503 1504 1505 1505 1506 1506 1506 1506 1505 1504 1503 1502 1501 1499 1497 1495 1493 1491 1489 1487 1484 1482 1479 1477 1475 1474 1472 1471 1471 1470 1469 1469 1469 1469 1469 1469 1470 1470 1470 1471 1471
1498 1499 1500 1501 1502 1504 1504 1505 1505 1505 1504 1503 1502 1501 1500 1498 1497 1495 1493 1491 1489 1487 1485 1482 1480 1478 1476 1474 1473 1472 1471 1470 1469 1469 1468 1468 1468 1468 1467 1467 1468 1468 1468
1496 1497 1498 1499 1501 1502 1503 1503 1503 1503 1503 1502 1501 1500 1499 1498 1496 1495 1493 1491 1489 1487 1485 1483 1481 1479 1477 1475 1473 1472 1471 1470 1469 1468 1468 1467 1466 1466 1466 1466 1465 1465 1466
1494 1495 1496 1498 1499 1500 1501 1502 1502 1502 1502 1501 1500 1499 1498 1497 1496 1494 1493 1491 1489 1488 1486 1484 1482 1480 1477 1475 1474 1472 1471 1470 1469 1468 1467 1466 1465 1465 1465 1464 1463 1463 1463
1492 1494 1495 1496 1497 1498 1499 1500 1500 1500 1500 1499 1499 1498 1497 1496 1495 1493 1492 1491 1489 1487 1486 1484 1482 1480 1478 1476 1474 1473 1471 1470 1469 1468 1467 1466 1465 1464 1463 1462 1462 1461 1461
1491 1492 1493 1494 1496 1497 1498 1498 1498 1498 1498 1498 1497 1496 1496 1495 1494 1492 1491 1490 1488 1487 1485 1484 1482 1480 1478 1476 1474 1473 1471 1470 1469 1467 1466 1465 1464 1463 1462 1461 1460 1459 1459
1489 1491 1492 1493 1494 1495 1496 1496 1496 1496 1496 1496 1495 1495 1494 1493 1492 1491 1490 1488 1487 1485 1484 1482 1481 1479 1478 1476 1474 1473 1471 1470 1468 1467 1465 1464 1463 1462 1461 1460 1459 1458 1458
1488 1489 1490 1491 1492 1493 1494 1494 1494 1494 1494 1494 1493 1493 1492 1491 1490 1489 1488 1487 1485 1484 1482 1481 1479 1478 1476 1475 1473 1472 1470 1469 1467 1466 1465 1463 1462 1461 1460 1459 1458 1457 1456
1486 1487 1488 1489 1490 1491 1491 1492 1492 1492 1492 1492 1491 1490 1489 1489 1488 1487 1485 1484 1483 1482 1480 1479 1477 1476 1474 1473 1472 1470 1469 1468 1466 1465 1463 1462 1461 1460 1459 1458 1457 1456 1455
1483 1485 1486 1487 1488 1489 1489 1489 1489 1489 1489 1489 1488 1488 1487 1486 1485 1484 1483 1482 1481 1480 1478 1476 1475 1473 1472 1471 1470 1468 1467 1466 1465 1463 1462 1461 1459 1458 1457 1456 1455 1454 1453
1481 1482 1484 1485 1485 1486 1487 1487 1487 1487 1486 1486 1485 1485 1484 1482 1481 1480 1479 1479 1478 1476 1475 1474 1472 1471 1470 1468 1467 1466 1465 1464 1462 1461 1460 1458 1457 1456 1455 1454 1453 1452 1451